Printer-friendly version

IAU Minor Planet Center

Minor Planet Center

MPEC 2007-R02 : 2003 UY413, 2003 UZ413, 2004 NT33, 2005 CA79, 2005 CB79, 2005 UQ513

The following Minor Planet Electronic Circular may be linked-to from your own Web pages, but must not otherwise be redistributed electronically.


Read MPEC 2007-R01 Read MPEC 2007-R03


M.P.E.C. 2007-R02                                Issued 2007 Sept. 1, 18:49 UT

     The Minor Planet Electronic Circulars contain information on unusual
         minor planets and routine data on comets.  They are published
   on behalf of Commission 20 of the International Astronomical Union by the
          Minor Planet Center, Smithsonian Astrophysical Observatory,
                          Cambridge, MA 02138, U.S.A.

             Prepared using the Tamkin Foundation Computer Network

                              MPC@CFA.HARVARD.EDU
          URL http://www.cfa.harvard.edu/iau/mpc.html  ISSN 1523-6714

      2003 UY413, 2003 UZ413, 2004 NT33, 2005 CA79, 2005 CB79, 2005 UQ513

Observations:
     K03Uf3Y* C2003 10 19.18738 00 15 08.57 +12 49 21.6          21.0 R ER002644
     K03Uf3Y  C2003 10 19.27090 00 15 08.15 +12 49 19.1          22.1 R ER002644
     K03Uf3Y  C2003 10 19.33416 00 15 07.86 +12 49 17.0          21.9 R ER002644
     K03Uf3Y  C2003 11 28.02416 00 12 52.10 +12 31 04.8                 ER002807
     K03Uf3Y  C2003 11 28.10858 00 12 51.93 +12 31 02.9                 ER002807
     K03Uf3Y  C2004 09 22.40340 00 22 09.37 +14 05 17.7          20.9 R ER002644
     K03Uf3Y  C2004 09 22.46608 00 22 09.07 +14 05 16.4          20.9 R ER002644
     K03Uf3Y  C2004 09 23.40832 00 22 04.40 +14 04 54.3          20.9 R ER002644
     K03Uf3Y  C2004 09 23.46502 00 22 04.11 +14 04 52.9          20.9 R ER002644
     K03Uf3Z  C2003 08 30.39120 02 35 52.97 +02 36 20.2                 ER002644
     K03Uf3Z  C2003 09 29.35632 02 34 30.66 +02 22 31.6          20.2 r ER002644
     K03Uf3Z* C2003 10 21.26996 02 32 57.11 +02 12 08.9          20.8 R ER002644
     K03Uf3Z  C2003 10 21.34232 02 32 56.77 +02 12 07.2          20.7 R ER002644
     K03Uf3Z  C2003 10 21.40693 02 32 56.51 +02 12 05.4          20.2 R ER002644
     K03Uf3Z  C2006 09 14.52221 02 50 12.46 +03 35 54.7                 ER002644
     K03Uf3Z  C2006 09 16.34701 02 50 07.74 +03 35 06.3                 ER002644
     K03Uf3Z  C2006 09 16.39022 02 50 07.63 +03 35 04.8                 ER002644
     K03Uf3Z  C2006 09 23.40815 02 49 47.14 +03 31 55.0                 ER002644
     K03Uf3Z  C2006 09 24.40478 02 49 43.93 +03 31 27.7                 ER002644
     K04N33T* C2004 07 13.23447 20 18 14.40 +11 23 28.3          20.0 R ER002644
     K04N33T  C2004 07 13.31098 20 18 13.99 +11 23 28.7          20.2 R ER002644
     K04N33T  C2004 07 13.37774 20 18 13.64 +11 23 28.7          21.0 R ER002644
     K04N33T  C2005 07 03.28159 20 25 15.99 +12 06 21.3          20.9 R ER002644
     K04N33T  C2005 07 03.34472 20 25 15.69 +12 06 21.8          20.9 R ER002644
     K04N33T  C2005 07 03.40946 20 25 15.37 +12 06 22.3          20.7 R ER002644
     K04N33T  C2005 07 04.33496 20 25 10.99 +12 06 30.0          20.5 R ER002644
     K04N33T  C2005 07 04.40817 20 25 10.63 +12 06 30.6          21.2 R ER002644
     K04N33T  C2005 07 04.47083 20 25 10.33 +12 06 30.9          20.9 R ER002644
     K04N33T  C2005 07 29.37692 20 23 02.87 +12 05 00.3                 ER002644
     K04N33T  C2005 07 30.29105 20 22 58.05 +12 04 45.2                 ER002644
     K04N33T  C2006 09 14.15108 20 25 44.36 +12 24 32.7                 ER002644
     K04N33T  C2006 09 15.12120 20 25 41.31 +12 23 51.2                 ER002644
     K04N33T  C2006 09 16.31170 20 25 37.62 +12 22 59.6                 ER002644
     K05C79A* C2005 02 01.25848 08 30 30.93 +30 44 40.3          21.3 R ER002644
     K05C79A  C2005 02 01.32689 08 30 30.55 +30 44 41.7          21.5 R ER002644
     K05C79A  C2005 02 01.39048 08 30 30.13 +30 44 43.0          20.7 R ER002644
     K05C79A  C2005 02 02.20606 08 30 25.18 +30 44 57.4          20.7 R ER002644
     K05C79A  C2005 02 02.27396 08 30 24.80 +30 44 58.0          20.5 R ER002644
     K05C79A  C2005 02 02.33718 08 30 24.40 +30 44 59.2          20.6 R ER002644
     K05C79A  C2005 04 13.12906 08 26 04.86 +30 44 53.9          20.9 R ER002644
     K05C79A  C2005 04 13.13148 08 26 04.85 +30 44 53.8          20.9 R ER002644
     K05C79A  C2005 04 14.12666 08 26 04.76 +30 44 36.3          21.3 R ER002644
     K05C79A  C2005 04 14.15821 08 26 04.76 +30 44 36.2          21.1 R ER002644
     K05C79A  C2005 11 05.44506 08 44 15.24 +29 46 24.9          20.6 R ER002644
     K05C79A  C2005 11 05.49830 08 44 15.26 +29 46 26.0          20.6 R ER002644
     K05C79A  C2006 03 25.21068 08 34 39.01 +30 28 59.1                 ER002644
     K05C79A  C2006 03 25.30752 08 34 38.75 +30 28 58.3                 ER002644
     K05C79B* C2005 02 06.28440 09 07 45.91 +27 06 57.1          21.3 R ER002644
     K05C79B  C2005 02 06.28561 09 07 46.04 +27 06 56.6          20.8 R ER002644
     K05C79B  C2005 02 06.30540 09 07 45.82 +27 06 58.1          20.8 R ER002644
     K05C79B  C2005 02 06.30660 09 07 45.89 +27 06 57.2          20.8 R ER002644
     K05C79B  C2005 02 06.33201 09 07 45.64 +27 06 58.3          21.0 R ER002644
     K05C79B  C2005 02 06.33594 09 07 45.73 +27 06 58.0          21.6 R ER002644
     K05C79B  C2005 03 11.33968 09 05 01.48 +27 18 28.0                 ER002644
     K05C79B  C2005 03 13.21523 09 04 53.84 +27 18 52.5                 ER002644
     K05C79B  C2006 02 23.34024 09 12 47.31 +27 28 36.3                 ER002644
     K05C79B  C2006 02 23.39112 09 12 47.03 +27 28 37.4                 ER002644
     K05C79B  C2006 03 25.22142 09 10 39.07 +27 35 47.2                 ER002644
     K05C79B  C2006 03 25.31881 09 10 38.79 +27 35 47.9                 ER002644
     K05Up3Q* C2005 10 21.14487 23 57 49.34 +25 42 56.0          20.5 R ER002644
     K05Up3Q  C2005 10 21.21031 23 57 49.07 +25 42 54.0          21.2 R ER002644
     K05Up3Q  C2005 10 21.27688 23 57 48.77 +25 42 51.7          20.8 R ER002644
     K05Up3Q  C2005 10 22.10820 23 57 45.66 +25 42 24.2          21.0 R ER002644
     K05Up3Q  C2005 10 22.18315 23 57 45.36 +25 42 22.0          20.8 R ER002644
     K05Up3Q  C2005 10 22.25532 23 57 45.10 +25 42 19.2          20.9 R ER002644
     K05Up3Q  C2005 10 23.09975 23 57 41.95 +25 41 51.2          20.9 R ER002644
     K05Up3Q  C2005 10 23.16858 23 57 41.70 +25 41 48.7          20.9 R ER002644
     K05Up3Q  C2005 10 23.23392 23 57 41.44 +25 41 46.9          21.0 R ER002644
     K05Up3Q  C2005 10 24.10087 23 57 38.24 +25 41 17.5          20.6 R ER002644
     K05Up3Q  C2005 10 24.16436 23 57 38.01 +25 41 15.5          20.8 R ER002644
     K05Up3Q  C2005 10 24.23280 23 57 37.75 +25 41 13.1          20.8 R ER002644
     K05Up3Q  C2005 10 26.27668 23 57 30.34 +25 40 03.5          20.8 R ER002644
     K05Up3Q  C2005 10 26.34425 23 57 30.09 +25 40 01.0          20.5 R ER002644
     K05Up3Q  C2005 10 26.41324 23 57 29.86 +25 39 58.6          21.1 R ER002644
     K05Up3Q  C2005 11 04.11249 23 57 00.78 +25 34 53.1          20.4 R ER002644
     K05Up3Q  C2005 11 04.12544 23 57 00.74 +25 34 52.7          20.3 R ER002644
     K05Up3Q  C2005 11 04.13956 23 57 00.70 +25 34 52.2          20.2 R ER002644
     K05Up3Q  C2005 11 30.12244 23 56 03.93 +25 19 33.5          20.3 R ER002644
     K05Up3Q  C2005 11 30.17370 23 56 03.87 +25 19 31.8          20.1 R ER002644
     K05Up3Q  C2006 09 15.13471 00 03 56.91 +26 34 11.4                 ER002644
     K05Up3Q  C2006 09 16.35403 00 03 51.51 +26 33 52.4                 ER002644
     K05Up3Q  C2006 09 16.40442 00 03 51.26 +26 33 50.8                 ER002644
     K05Up3Q  C2006 09 23.44206 00 03 20.08 +26 31 41.7                 ER002644
     K05Up3Q  C2006 09 25.18097 00 03 12.36 +26 31 04.8                 ER002644
     K05Up3Q  C2006 09 26.30865 00 03 07.33 +26 30 40.2                 ER002644

Observer details:
644 Palomar Mountain/NEAT.  Observers M. Brown, C. Trujillo, D. Rabinowitz.
    1.2-m Schmidt + CCD.
807 Cerro Tololo.  Observer D. Rabinowitz.  1.0-m SMARTS + CCD

Orbital elements:
2003 UY413
Epoch 2007 Oct. 27.0 TT = JDT 2454400.5                 MPC
M 340.89943              (2000.0)            P               Q
n   0.00181904     Peri.  106.52827     +0.02255536     -0.99317918
a  66.4621132      Node   341.03614     +0.72917198     +0.09462462
e   0.5729899      Incl.   20.61076     +0.68395868     -0.06812707
P 542              H    5.7           G   0.15           U   7
Residuals in seconds of arc
K03AJ  644  0.2+  0.2+    K03BS  807  0.1+  0.2-    K049M  644  0.4-  0.0
K03AJ  644  0.2-  0.2+    K03BS  807  0.1+  0.3-    K049N  644  0.5+  0.1+
K03AJ  644  0.2-  0.0     K049M  644  0.6-  0.2-    K049N  644  0.5+  0.1+

2003 UZ413
Epoch 2007 Oct. 27.0 TT = JDT 2454400.5                 MPC
M  99.84582              (2000.0)            P               Q
n   0.00405971     Peri.  143.34576     +0.17070745     +0.97458308
a  38.9170304      Node   135.95233     -0.94631219     +0.20318117
e   0.2141527      Incl.   12.04408     -0.27450356     -0.09436754
P 243              H    4.7           G   0.15           U   6
Residuals in seconds of arc
K038U  644  0.5+  0.2-    K03AL  644  0.6+  0.1+    K069N  644  0.1+  0.1+
K039T  644  0.8-  0.0     K069E  644  0.0   0.0     K069O  644  0.1-  0.2+
K03AL  644  0.2-  0.1-    K069G  644  0.1-  0.0
K03AL  644  0.1-  0.2+    K069G  644  0.0   0.3-

